This is the latest recevied weather packets stored in our database for station/object SQ6XL-13. If no packets are shown the sender has not sent any weather packets the latest 10 day(s).
| Time | Temp. | Humidity | Pressure | Rain* | Wind** | Luminosity | Snow |
|---|---|---|---|---|---|---|---|
| 1787831430 | 22.78° C | 59% | 1021.2 hPa | 0 mm | - | - | - |
| 1787830905 | 22.78° C | 57% | 1021.2 hPa | 0 mm | - | - | - |
| 1787830379 | 22.78° C | 57% | 1021.2 hPa | 0 mm | - | - | - |
| 1787829810 | 22.78° C | 58% | 1021.2 hPa | 0 mm | - | - | - |
| 1787829239 | 22.22° C | 58% | 1021.3 hPa | 0 mm | - | - | - |
| 1787828675 | 22.22° C | 56% | 1021.4 hPa | 0 mm | - | - | - |
| 1787828080 | 22.22° C | 57% | 1021.5 hPa | 0 mm | - | - | - |
| 1787827547 | 21.67° C | 57% | 1021.5 hPa | 0 mm | - | - | - |
| 1787827039 | 21.67° C | 59% | 1021.5 hPa | 0 mm | - | - | - |
| 1787826470 | 21.67° C | 59% | 1021.4 hPa | 0 mm | - | - | - |
| 1787825875 | 21.67° C | 60% | 1021.6 hPa | 0 mm | - | - | - |
| 1787825305 | 21.67° C | 61% | 1021.5 hPa | 0 mm | - | - | - |
| 1787824779 | 21.67° C | 63% | 1021.5 hPa | 0 mm | - | - | - |
| 1787824185 | 21.67° C | 64% | 1021.5 hPa | 0 mm | - | - | - |
| 1787823689 | 21.11° C | 65% | 1021.5 hPa | 0 mm | - | - | - |
| 1787823210 | 21.11° C | 65% | 1021.5 hPa | 0 mm | - | - | - |
| 1787822670 | 21.11° C | 66% | 1021.6 hPa | 0 mm | - | - | - |
| 1787822179 | 21.11° C | 68% | 1021.7 hPa | 0 mm | - | - | - |
| 1787821590 | 21.11° C | 67% | 1021.8 hPa | 0 mm | - | - | - |
| 1787821005 | 20.56° C | 69% | 1021.7 hPa | 0 mm | - | - | - |
| 1787820465 | 20° C | 73% | 1021.7 hPa | 0 mm | - | - | - |
| 1787819895 | 20° C | 77% | 1021.7 hPa | 0 mm | - | - | - |
| 1787819375 | 19.44° C | 79% | 1021.9 hPa | 0 mm | - | - | - |
| 1787818843 | 19.44° C | 80% | 1021.8 hPa | 0 mm | - | - | - |
| 1787818307 | 19.44° C | 81% | 1021.8 hPa | 0 mm | - | - | - |
* Rain latest hour (hover to see other rain measurements)
** Current wind speed in m/s (hover to see current wind gust speed)